Weather in Korochka

Russia / Kursk Oblast     51°05′17″N   35°43′05″E
temp.,
°C
wind,
m/s
gust,
m/s
humid.,
%
clouds,
%
prec.,
mm/h
press.,
hPa
HPBL,
m
18 may, tue
tue1800:00+16se4795100 1.1 1005143
03:00+15se349577 1.6 100575
06:00+16se1294100 0.4 100458
09:00+18ssw5787100 3.3 1004440
12:00+20s3576100 0.4 1004852
15:00+16se3693100 4.8 1004255
18:00+18s61084100 0.8 1003710
21:00+14sse41093100 1.1 1004244
19 may, wed
wed1900:00+13sse3896100 0.2 1004178
03:00+12se499757 0.3 1004243
06:00+12se5119793 0.0 1005390
09:00+14sse5986100 0.1 1005613
12:00+17se6771100 0.2 10051281
15:00+15se5685100 1.3 1005579
18:00+13ese2494100 1.4 1005155
21:00+11ese3595100 1.4 1005118
20 may, thu
thu2000:00+11ese3696100 0.2 1004177
03:00+11sse3597100 1.6 1004162
06:00+11s4797100 0.4 1004278
09:00+13ssw5791100 0.8 1005594
12:00+12sw5991100 0.3 1007637
15:00+12sw61087100 0.4 1009708
18:00+14wsw588499 0.3 1010943
21:00+11wsw259493 0.3 1011180
21 may, fri
fri2100:00+9wsw339511 0.0 101262
03:00+9wsw229680 0.0 101333
06:00+10nnw129680 0.9 101473
09:00+13ene2285100 0.9 1014330
12:00+14ene3381100 0.6 1014536
15:00+15ne4585100 1.1 1014394
18:00+15nne5887100 0.1 1013404
21:00+13nne51095100 4.1 1014407
22 may, sat
sat2200:00+12nne5109899 3.4 1013335
03:00+12nne61098100 4.4 1012389
06:00+12nne5998100 0.0 1012408
09:00+14ne6890100 0.0 1013584
12:00+17ne6783100 0.0 1013783
15:00+18ne4581100 0.1 1013845
18:00+18nne4685100 0.0 1014630
21:00+15nne479189 0.0 1014220